Weather History for KFET - November, 2012

Change the Weather History Date:

Tuesday, November 13, 2012

  Actual Average Record
Temperature  
Mean Temperature 38 °F -  
Max Temperature 56 °F 49 °F 82 °F (1999)
Min Temperature 21 °F 28 °F -2 °F (1986)
Degree Days  
Heating Degree Days 26    
Moisture  
Dew Point 24 °F    
Average Humidity 57    
Maximum Humidity 89    
Minimum Humidity 21    
Precipitation  
Precipitation 0.00 in - - ()
Sea Level Pressure  
Sea Level Pressure 30.29 in    
Wind  
Wind Speed 4 mph (SSE)    
Max Wind Speed 15 mph    
Max Gust Speed 20 mph    
Visibility 10 miles    
Events      
Averages and records for this station are not official NWS values.
T = Trace of Precipitation, MM = Missing Value Source: NWS Daily Summary

Daily Weather History Graph

Daily Weather History Graph

Search for Another Location

Airport or City:

Trip Planner

Search our weather history database for the weather conditions in past years. The results will help you decide how hot, cold, wet, or windy it might be!

Date:

Astronomy

Nov. 13, 2012 Rise Set
Actual Time 7:12 AM CST 5:07 PM CST
Civil Twilight 6:43 AM CST 5:37 PM CST
Nautical Twilight 6:09 AM CST 6:10 PM CST
Astronomical Twilight 5:37 AM CST 6:43 PM CST
Moon 6:52 AM CST (11/13) 5:01 PM CST (11/13)
Length of Visible Light 10h 53m
Length of Day
9h 54m
Waning Crescent, 0% of the Moon is Illuminated
Nov 13
Waning Crescent
Nov 13
New
Nov 20
First Quarter
Nov 28
Full
Dec 6
Last Quarter

Hourly Weather History & Observations

Time (CST) Temp. Windchill Dew Point Humidity Pressure Visibility Wind Dir Wind Speed Gust Speed Precip Events Conditions
12:15 AM 23.9 °F - 19.6 °F 84% 30.35 in 10.0 mi Calm Calm - N/A   Clear
12:35 AM 25.5 °F - 19.8 °F 79% 30.36 in 10.0 mi Calm Calm - N/A   Clear
12:55 AM 23.7 °F - 19.8 °F 85% 30.36 in 10.0 mi Calm Calm - N/A   Clear
1:15 AM 24.6 °F - 19.8 °F 82% 30.36 in 10.0 mi Calm Calm - N/A   Clear
1:35 AM 25.9 °F - 21.0 °F 82% 30.36 in 10.0 mi Calm Calm - N/A   Clear
1:55 AM 24.3 °F 19.9 °F 20.1 °F 84% 30.36 in 10.0 mi SE 3.5 mph - N/A   Clear
2:15 AM 28.6 °F - 19.2 °F 68% 30.36 in 10.0 mi Calm Calm - N/A   Clear
2:35 AM 28.4 °F - 19.0 °F 68% 30.36 in 10.0 mi Calm Calm - N/A   Clear
2:55 AM 25.5 °F - 19.8 °F 79% 30.36 in 10.0 mi Calm Calm - N/A   Clear
3:35 AM 23.7 °F - 19.4 °F 84% 30.34 in 10.0 mi Calm Calm - N/A   Clear
3:55 AM 23.2 °F - 18.3 °F 82% 30.34 in 10.0 mi Calm Calm - N/A   Clear
4:15 AM 21.6 °F - 18.7 °F 89% 30.34 in 10.0 mi Calm Calm - N/A   Clear
4:35 AM 22.5 °F - 19.2 °F 87% 30.34 in 10.0 mi Calm Calm - N/A   Clear
4:55 AM 21.9 °F - 19.0 °F 89% 30.34 in 10.0 mi Calm Calm - N/A   Clear
5:15 AM 22.6 °F 18.0 °F 19.6 °F 88% 30.34 in 10.0 mi SSE 3.5 mph - N/A   Clear
5:35 AM 23.7 °F - 19.6 °F 84% 30.34 in 10.0 mi Calm Calm - N/A   Clear
5:55 AM 25.7 °F - 19.4 °F 77% 30.34 in 10.0 mi Calm Calm - N/A   Clear
6:15 AM 24.3 °F - 19.4 °F 82% 30.34 in 10.0 mi Calm Calm - N/A   Clear
6:35 AM 22.6 °F 18.0 °F 19.0 °F 86% 30.33 in 10.0 mi ESE 3.5 mph - N/A   Clear
6:55 AM 24.6 °F - 19.4 °F 81% 30.33 in 10.0 mi Calm Calm - N/A   Clear
7:15 AM 25.0 °F - 19.0 °F 78% 30.33 in 10.0 mi Calm Calm - N/A   Clear
7:35 AM 24.3 °F 19.9 °F 19.4 °F 82% 30.33 in 10.0 mi East 3.5 mph - N/A   Clear
7:55 AM 25.0 °F 20.7 °F 20.8 °F 84% 30.33 in 10.0 mi ESE 3.5 mph - N/A   Clear
8:15 AM 27.9 °F - 21.9 °F 78% 30.33 in 10.0 mi Calm Calm - N/A   Clear
8:35 AM 30.0 °F - 21.9 °F 72% 30.33 in 10.0 mi Calm Calm - N/A   Clear
8:55 AM 32.2 °F - 23.7 °F 71% 30.33 in 10.0 mi Calm Calm - N/A   Clear
9:15 AM 34.9 °F 29.0 °F 21.7 °F 59% 30.33 in 10.0 mi South 6.9 mph - N/A   Clear
9:35 AM 36.5 °F 31.8 °F 23.4 °F 59% 30.33 in 10.0 mi SSE 5.8 mph - N/A   Clear
9:55 AM 38.1 °F 32.9 °F 24.1 °F 57% 30.33 in 10.0 mi SSE 6.9 mph - N/A   Clear
10:15 AM 40.5 °F 35.1 °F 23.7 °F 51% 30.33 in 10.0 mi South 8.1 mph - N/A   Clear
10:35 AM 41.9 °F 36.9 °F 24.6 °F 50% 30.33 in 10.0 mi South 8.1 mph - N/A   Clear
10:55 AM 43.0 °F 39.5 °F 25.2 °F 49% 30.32 in 10.0 mi SSE 5.8 mph - N/A   Clear
11:15 AM 45.3 °F 42.3 °F 25.2 °F 45% 30.32 in 10.0 mi SSE 5.8 mph - N/A   Clear
11:35 AM 48.4 °F - 24.4 °F 39% 30.31 in 10.0 mi SE 6.9 mph - N/A   Clear
11:55 AM 50.4 °F - 22.1 °F 33% 30.30 in 10.0 mi SSE 10.4 mph - N/A   Clear
12:15 PM 52.0 °F - 21.6 °F 30% 30.28 in 10.0 mi SSE 10.4 mph - N/A   Clear
12:35 PM 52.7 °F - 23.7 °F 32% 30.27 in 10.0 mi SSE 10.4 mph 19.6 mph N/A   Clear
12:55 PM 52.9 °F - 24.3 °F 33% 30.26 in 10.0 mi SSE 11.5 mph - N/A   Clear
1:15 PM 54.1 °F - 22.3 °F 29% 30.26 in 10.0 mi South 15.0 mph - N/A   Clear
1:35 PM 55.8 °F - 21.2 °F 26% 30.25 in 10.0 mi SSE 10.4 mph - N/A   Clear
1:55 PM 56.3 °F - 16.7 °F 21% 30.25 in 10.0 mi South 12.7 mph 17.3 mph N/A   Clear
2:15 PM 55.6 °F - 18.0 °F 23% 30.24 in 10.0 mi South 11.5 mph 16.1 mph N/A   Scattered Clouds
2:35 PM 55.6 °F - 19.9 °F 25% 30.23 in 10.0 mi South 8.1 mph - N/A   Scattered Clouds
2:55 PM 55.8 °F - 20.1 °F 25% 30.23 in 10.0 mi SSE 10.4 mph - N/A   Mostly Cloudy
3:15 PM 55.8 °F - 19.4 °F 24% 30.23 in 10.0 mi South 8.1 mph - N/A   Overcast
3:35 PM 55.4 °F - 19.4 °F 25% 30.22 in 10.0 mi SSE 5.8 mph - N/A   Overcast
3:55 PM 54.7 °F - 21.2 °F 27% 30.22 in 10.0 mi SSE 5.8 mph - N/A   Overcast
4:15 PM 53.6 °F - 23.4 °F 31% 30.22 in 10.0 mi SE 10.4 mph - N/A   Scattered Clouds
4:35 PM 52.0 °F - 26.6 °F 37% 30.22 in 10.0 mi SE 6.9 mph - N/A   Mostly Cloudy
4:55 PM 50.5 °F - 28.2 °F 42% 30.22 in 10.0 mi SE 6.9 mph - N/A   Overcast
5:15 PM 49.6 °F - 29.1 °F 45% 30.22 in 10.0 mi SE 6.9 mph - N/A   Mostly Cloudy
5:35 PM 48.9 °F - 29.8 °F 48% 30.22 in 10.0 mi SE 5.8 mph - N/A   Scattered Clouds
5:55 PM 48.0 °F - 28.6 °F 47% 30.23 in 10.0 mi SE 8.1 mph - N/A   Clear
6:15 PM 48.0 °F - 27.5 °F 45% 30.24 in 10.0 mi SE 6.9 mph - N/A   Clear
6:35 PM 47.1 °F - 29.1 °F 50% 30.24 in 10.0 mi SE 8.1 mph - N/A   Clear
6:55 PM 46.2 °F 42.2 °F 29.3 °F 52% 30.24 in 10.0 mi SE 8.1 mph - N/A   Clear
7:15 PM 48.4 °F - 27.5 °F 44% 30.24 in 10.0 mi SSE 9.2 mph - N/A   Clear
7:35 PM 49.8 °F - 26.6 °F 41% 30.24 in 10.0 mi SSE 9.2 mph - N/A   Clear
7:55 PM 49.1 °F - 27.3 °F 43% 30.25 in 10.0 mi South 10.4 mph - N/A   Clear
8:15 PM 48.2 °F - 28.0 °F 46% 30.25 in 10.0 mi South 9.2 mph - N/A   Clear
8:35 PM 48.2 °F - 28.4 °F 46% 30.25 in 10.0 mi South 13.8 mph 17.3 mph N/A   Clear
8:55 PM 48.2 °F - 28.8 °F 47% 30.26 in 10.0 mi South 9.2 mph - N/A   Clear
9:15 PM 48.0 °F - 29.1 °F 48% 30.27 in 10.0 mi SSW 9.2 mph - N/A   Clear
9:35 PM 47.3 °F - 29.7 °F 50% 30.27 in 10.0 mi South 11.5 mph - N/A   Scattered Clouds
9:55 PM 47.1 °F - 30.2 °F 52% 30.28 in 10.0 mi SSW 8.1 mph - N/A   Overcast
10:15 PM 46.2 °F 41.2 °F 30.6 °F 54% 30.28 in 10.0 mi South 10.4 mph - N/A   Mostly Cloudy
10:35 PM 46.4 °F 41.5 °F 30.9 °F 55% 30.28 in 10.0 mi SSW 10.4 mph 16.1 mph N/A   Mostly Cloudy
10:55 PM 46.0 °F 41.0 °F 31.1 °F 56% 30.28 in 10.0 mi South 10.4 mph 17.3 mph N/A   Mostly Cloudy
11:15 PM 45.7 °F 40.2 °F 30.9 °F 56% 30.28 in 10.0 mi SSW 11.5 mph 17.3 mph N/A   Scattered Clouds
11:35 PM 45.5 °F 40.3 °F 30.9 °F 57% 30.28 in 10.0 mi SSW 10.4 mph - N/A   Scattered Clouds
11:55 PM 45.3 °F 39.7 °F 30.7 °F 57% 30.28 in 10.0 mi SSW 11.5 mph 17.3 mph N/A   Clear